Torna al catalogo

CZ-6A DEB

AttivoPO
NORAD 56270·DEBRIS·🇨🇳 China

Lanciato Nov 11, 2022 da Taiyuan Satellite Launch Center

Loading…

Prossimi Passaggi (prossime 24 ore)

TLE

AggiornatoSource: Space-Track

Epoca: Sep 12, 2026, 17:04 UTC

1 56270U 22151ACN 26255.71145179  .00007967  00000-0  10933-2 0  9993
2 56270  98.6181 330.7524 0062482 353.4540   6.5846 14.77339095188829

Traccia CZ-6A DEB in tempo reale con AllMySat

Download on the App Store